Location: Calvera
(42.3882°N, 0.6137°E)
Time: 14:02:03
(UTC+00:00)

CZ-4B R/B - Pass Details

Date: 28 October 2020
Orbit: 389 x 462 km, 97.6° (Epoch: 24 November)

Event Time Altitude Azimuth Distance (km) Brightness Sun altitude
Rises 05:01:42 0° 181° (S) 2,480 5.2 -16.2°
Reaches altitude 10° 05:03:48 10° 188° (S) 1,609 4.2 -15.8°
Maximum altitude 05:07:07 42° 261° (W) 670 1.8 -15.2°
Enters shadow 05:10:01 13° 331° (NNW) 1,451 3.6 -14.6°
